Time,TemperatureF,DewpointF,PressureIn,WindDirection,WindDirectionDegrees,WindSpeedMPH,WindSpeedGustMPH,Humidity,HourlyPrecipIn,Conditions,Clouds,dailyrainin,SoftwareType,DateUTC
2013-03-17 00:00:00,26.0,21.3,30.10,NW,306,3.0,3.0,82,0.00,,,0.00,Wunderground v.1.15,2013-03-17 04:00:00,
2013-03-17 00:05:00,26.0,21.3,30.10,WNW,293,3.0,4.0,82,0.00,,,0.00,Wunderground v.1.15,2013-03-17 04:05:00,
2013-03-17 00:10:00,26.0,21.3,30.10,WNW,289,4.0,4.0,82,0.00,,,0.00,Wunderground v.1.15,2013-03-17 04:10:00,
2013-03-17 00:15:00,25.9,21.2,30.10,NW,307,4.0,5.0,82,0.00,,,0.00,Wunderground v.1.15,2013-03-17 04:15:00,
2013-03-17 00:20:00,25.9,21.2,30.10,NW,308,3.0,3.0,82,0.00,,,0.00,Wunderground v.1.15,2013-03-17 04:20:00,
2013-03-17 00:25:00,25.9,21.2,30.10,WNW,294,3.0,3.0,82,0.00,,,0.00,Wunderground v.1.15,2013-03-17 04:25:00,
2013-03-17 00:35:00,25.8,21.1,30.10,NW,311,3.0,3.0,82,0.00,,,0.00,Wunderground v.1.15,2013-03-17 04:35:00,
2013-03-17 00:40:00,25.8,21.1,30.10,NNW,327,3.0,3.0,82,0.00,,,0.00,Wunderground v.1.15,2013-03-17 04:40:00,
2013-03-17 00:45:00,25.9,20.9,30.10,NW,311,3.0,3.0,81,0.00,,,0.00,Wunderground v.1.15,2013-03-17 04:45:00,
2013-03-17 00:50:00,25.8,20.8,30.10,WNW,303,3.0,6.0,81,0.00,,,0.00,Wunderground v.1.15,2013-03-17 04:50:00,
2013-03-17 00:55:00,25.9,20.9,30.11,WNW,297,3.0,6.0,81,0.00,,,0.00,Wunderground v.1.15,2013-03-17 04:55:00,
2013-03-17 01:00:00,25.9,20.9,30.11,NW,304,3.0,3.0,81,0.00,,,0.00,Wunderground v.1.15,2013-03-17 05:00:00,
2013-03-17 01:10:00,25.9,20.9,30.11,WNW,289,3.0,3.0,81,0.00,,,0.00,Wunderground v.1.15,2013-03-17 05:10:00,
2013-03-17 01:15:00,25.9,20.9,30.12,WNW,302,3.0,3.0,81,0.00,,,0.00,Wunderground v.1.15,2013-03-17 05:15:00,
2013-03-17 01:20:00,26.1,21.1,30.12,NW,312,3.0,3.0,81,0.00,,,0.00,Wunderground v.1.15,2013-03-17 05:20:00,
2013-03-17 01:25:00,26.3,21.3,30.12,WNW,295,3.0,3.0,81,0.00,,,0.00,Wunderground v.1.15,2013-03-17 05:25:00,
2013-03-17 01:30:00,26.4,21.4,30.12,WNW,298,2.0,2.0,81,0.00,,,0.00,Wunderground v.1.15,2013-03-17 05:30:00,
2013-03-17 01:40:00,26.6,21.6,30.12,NW,316,2.0,5.0,81,0.00,,,0.00,Wunderground v.1.15,2013-03-17 05:40:00,
2013-03-17 01:45:00,26.7,21.4,30.12,WNW,297,2.0,5.0,80,0.00,,,0.00,Wunderground v.1.15,2013-03-17 05:45:00,
2013-03-17 01:50:00,26.8,21.5,30.12,WNW,282,2.0,2.0,80,0.00,,,0.00,Wunderground v.1.15,2013-03-17 05:50:00,
2013-03-17 01:55:00,26.9,21.6,30.12,NW,317,2.0,2.0,80,0.00,,,0.00,Wunderground v.1.15,2013-03-17 05:55:00,
2013-03-17 02:00:00,26.9,21.6,30.12,WNW,300,3.0,3.0,80,0.00,,,0.00,Wunderground v.1.15,2013-03-17 06:00:00,
2013-03-17 02:10:00,27.0,21.7,30.12,NNE,30,3.0,4.0,80,0.00,,,0.00,Wunderground v.1.15,2013-03-17 06:10:00,
2013-03-17 02:15:00,27.0,21.7,30.12,NNW,345,4.0,5.0,80,0.00,,,0.00,Wunderground v.1.15,2013-03-17 06:15:00,
2013-03-17 02:20:00,27.1,21.7,30.12,NW,324,3.0,3.0,80,0.00,,,0.00,Wunderground v.1.15,2013-03-17 06:20:00,
2013-03-17 02:25:00,27.1,21.7,30.12,NNW,330,3.0,3.0,80,0.00,,,0.00,Wunderground v.1.15,2013-03-17 06:25:00,
2013-03-17 02:30:00,27.1,21.7,30.12,North,359,4.0,4.0,80,0.00,,,0.00,Wunderground v.1.15,2013-03-17 06:30:00,
2013-03-17 02:35:00,27.1,22.0,30.12,North,1,3.0,4.0,81,0.00,,,0.00,Wunderground v.1.15,2013-03-17 06:35:00,
2013-03-17 02:45:00,27.1,21.7,30.13,NW,326,3.0,3.0,80,0.00,,,0.00,Wunderground v.1.15,2013-03-17 06:45:00,
2013-03-17 02:50:00,27.1,22.0,30.13,NNW,334,3.0,3.0,81,0.00,,,0.00,Wunderground v.1.15,2013-03-17 06:50:00,
2013-03-17 02:55:00,27.1,22.0,30.13,NW,321,2.0,3.0,81,0.00,,,0.00,Wunderground v.1.15,2013-03-17 06:55:00,
2013-03-17 03:00:00,27.1,22.0,30.13,NW,316,1.0,1.0,81,0.00,,,0.00,Wunderground v.1.15,2013-03-17 07:00:00,
2013-03-17 03:10:00,27.1,22.0,30.12,NNW,340,2.0,2.0,81,0.00,,,0.00,Wunderground v.1.15,2013-03-17 07:10:00,
2013-03-17 03:20:00,27.1,21.7,30.13,North,8,3.0,3.0,80,0.00,,,0.00,Wunderground v.1.15,2013-03-17 07:20:00,
2013-03-17 03:25:00,27.2,21.8,30.13,North,355,3.0,3.0,80,0.00,,,0.00,Wunderground v.1.15,2013-03-17 07:25:00,
2013-03-17 03:30:00,27.2,22.1,30.13,NW,309,2.0,2.0,81,0.00,,,0.00,Wunderground v.1.15,2013-03-17 07:30:00,
2013-03-17 03:35:00,27.2,22.1,30.13,North,357,1.0,2.0,81,0.00,,,0.00,Wunderground v.1.15,2013-03-17 07:35:00,
2013-03-17 03:40:00,27.2,22.1,30.13,North,355,2.0,3.0,81,0.00,,,0.00,Wunderground v.1.15,2013-03-17 07:40:00,
2013-03-17 03:50:00,27.2,22.1,30.13,North,11,2.0,3.0,81,0.00,,,0.00,Wunderground v.1.15,2013-03-17 07:50:00,
2013-03-17 03:55:00,27.2,22.1,30.12,NNE,33,2.0,3.0,81,0.00,,,0.00,Wunderground v.1.15,2013-03-17 07:55:00,
2013-03-17 04:00:00,27.2,22.1,30.12,NNE,15,2.0,3.0,81,0.00,,,0.00,Wunderground v.1.15,2013-03-17 08:00:00,
2013-03-17 04:10:00,27.2,22.1,30.12,NE,40,2.0,2.0,81,0.00,,,0.00,Wunderground v.1.15,2013-03-17 08:10:00,
2013-03-17 04:15:00,27.2,22.1,30.12,North,357,1.0,2.0,81,0.00,,,0.00,Wunderground v.1.15,2013-03-17 08:15:00,
2013-03-17 04:20:00,27.2,22.1,30.12,NNW,334,2.0,3.0,81,0.00,,,0.00,Wunderground v.1.15,2013-03-17 08:20:00,
2013-03-17 04:25:00,27.3,21.9,30.13,North,360,3.0,4.0,80,0.00,,,0.00,Wunderground v.1.15,2013-03-17 08:25:00,
2013-03-17 04:30:00,27.3,21.9,30.12,NNE,27,3.0,3.0,80,0.00,,,0.00,Wunderground v.1.15,2013-03-17 08:30:00,
2013-03-17 04:35:00,27.3,21.9,30.12,NNW,347,2.0,3.0,80,0.00,,,0.00,Wunderground v.1.15,2013-03-17 08:35:00,
2013-03-17 04:40:00,27.3,22.2,30.12,NNW,327,2.0,3.0,81,0.00,,,0.00,Wunderground v.1.15,2013-03-17 08:40:00,
2013-03-17 04:45:00,27.3,22.2,30.12,North,352,2.0,3.0,81,0.00,,,0.00,Wunderground v.1.15,2013-03-17 08:45:00,
2013-03-17 04:55:00,27.3,21.9,30.12,NNE,20,2.0,2.0,80,0.00,,,0.00,Wunderground v.1.15,2013-03-17 08:55:00,
2013-03-17 05:00:00,27.3,22.2,30.12,NNW,345,1.0,1.0,81,0.00,,,0.00,Wunderground v.1.15,2013-03-17 09:00:00,
2013-03-17 05:10:00,27.3,22.2,30.12,NNW,332,0.0,2.0,81,0.00,,,0.00,Wunderground v.1.15,2013-03-17 09:10:00,
2013-03-17 05:15:00,27.3,22.2,30.12,North,349,0.0,2.0,81,0.00,,,0.00,Wunderground v.1.15,2013-03-17 09:15:00,
2013-03-17 05:25:00,27.3,22.2,30.13,NNW,342,0.0,0.0,81,0.00,,,0.00,Wunderground v.1.15,2013-03-17 09:25:00,
2013-03-17 05:30:00,27.3,22.2,30.13,NNE,27,0.0,2.0,81,0.00,,,0.00,Wunderground v.1.15,2013-03-17 09:30:00,
2013-03-17 05:35:00,27.4,22.3,30.13,North,349,1.0,2.0,81,0.00,,,0.00,Wunderground v.1.15,2013-03-17 09:35:00,
2013-03-17 05:40:00,27.4,22.3,30.13,NNE,15,1.0,1.0,81,0.00,,,0.00,Wunderground v.1.15,2013-03-17 09:40:00,
2013-03-17 05:45:00,27.4,22.3,30.12,NE,37,1.0,1.0,81,0.00,,,0.00,Wunderground v.1.15,2013-03-17 09:45:00,
2013-03-17 05:50:00,27.4,22.3,30.13,North,5,1.0,1.0,81,0.00,,,0.00,Wunderground v.1.15,2013-03-17 09:50:00,
2013-03-17 06:00:00,27.5,22.4,30.13,North,11,2.0,3.0,81,0.00,,,0.00,Wunderground v.1.15,2013-03-17 10:00:00,
2013-03-17 06:10:00,27.7,22.0,30.14,NW,311,4.0,6.0,79,0.00,,,0.00,Wunderground v.1.15,2013-03-17 10:10:00,
2013-03-17 06:15:00,27.8,21.8,30.14,NNE,26,6.0,10.0,78,0.00,,,0.00,Wunderground v.1.15,2013-03-17 10:15:00,
2013-03-17 06:20:00,27.8,21.5,30.14,NNE,23,7.0,7.0,77,0.00,,,0.00,Wunderground v.1.15,2013-03-17 10:20:00,
2013-03-17 06:30:00,27.5,20.9,30.15,North,11,9.0,9.0,76,0.00,,,0.00,Wunderground v.1.15,2013-03-17 10:30:00,
2013-03-17 06:35:00,27.4,20.5,30.15,North,5,8.0,9.0,75,0.00,,,0.00,Wunderground v.1.15,2013-03-17 10:35:00,
2013-03-17 06:40:00,27.3,20.7,30.15,NNE,23,7.0,7.0,76,0.00,,,0.00,Wunderground v.1.15,2013-03-17 10:40:00,
2013-03-17 06:45:00,27.3,20.4,30.15,North,352,5.0,7.0,75,0.00,,,0.00,Wunderground v.1.15,2013-03-17 10:45:00,
2013-03-17 06:50:00,27.2,20.3,30.15,North,352,5.0,5.0,75,0.00,,,0.00,Wunderground v.1.15,2013-03-17 10:50:00,
2013-03-17 06:55:00,27.1,19.9,30.15,North,352,5.0,8.0,74,0.00,,,0.00,Wunderground v.1.15,2013-03-17 10:55:00,
2013-03-17 07:00:00,27.1,20.2,30.16,NNW,337,6.0,6.0,75,0.00,,,0.00,Wunderground v.1.15,2013-03-17 11:00:00,
2013-03-17 07:10:00,26.9,19.4,30.17,North,352,8.0,8.0,73,0.00,,,0.00,Wunderground v.1.15,2013-03-17 11:10:00,
2013-03-17 07:15:00,26.8,19.3,30.17,NNE,18,6.0,8.0,73,0.00,,,0.00,Wunderground v.1.15,2013-03-17 11:15:00,
2013-03-17 07:20:00,26.7,19.2,30.17,NE,37,5.0,5.0,73,0.00,,,0.00,Wunderground v.1.15,2013-03-17 11:20:00,
2013-03-17 07:25:00,26.5,19.0,30.18,North,9,4.0,5.0,73,0.00,,,0.00,Wunderground v.1.15,2013-03-17 11:25:00,
2013-03-17 07:30:00,26.4,18.9,30.18,NNE,12,4.0,8.0,73,0.00,,,0.00,Wunderground v.1.15,2013-03-17 11:30:00,
2013-03-17 07:35:00,26.3,18.8,30.18,NE,48,5.0,8.0,73,0.00,,,0.00,Wunderground v.1.15,2013-03-17 11:35:00,
2013-03-17 07:40:00,26.2,18.7,30.18,NE,41,5.0,5.0,73,0.00,,,0.00,Wunderground v.1.15,2013-03-17 11:40:00,
2013-03-17 07:45:00,26.2,18.7,30.19,NE,39,5.0,6.0,73,0.00,,,0.00,Wunderground v.1.15,2013-03-17 11:45:00,
2013-03-17 07:50:00,26.1,18.9,30.19,NE,34,6.0,6.0,74,0.00,,,0.00,Wunderground v.1.15,2013-03-17 11:50:00,
2013-03-17 07:55:00,26.0,18.8,30.20,North,9,5.0,6.0,74,0.00,,,0.00,Wunderground v.1.15,2013-03-17 11:55:00,
2013-03-17 08:00:00,25.9,18.7,30.20,NE,42,5.0,6.0,74,0.00,,,0.00,Wunderground v.1.15,2013-03-17 12:00:00,
2013-03-17 08:10:00,25.7,18.9,30.20,NE,38,3.0,3.0,75,0.00,,,0.00,Wunderground v.1.15,2013-03-17 12:10:00,
2013-03-17 08:15:00,25.7,18.9,30.21,NE,37,2.0,7.0,75,0.00,,,0.00,Wunderground v.1.15,2013-03-17 12:15:00,
2013-03-17 08:20:00,25.7,18.9,30.21,NE,41,3.0,4.0,75,0.00,,,0.00,Wunderground v.1.15,2013-03-17 12:20:00,
2013-03-17 08:25:00,25.8,19.0,30.21,NNE,30,4.0,4.0,75,0.00,,,0.00,Wunderground v.1.15,2013-03-17 12:25:00,
2013-03-17 08:30:00,25.9,18.7,30.22,NE,38,3.0,5.0,74,0.00,,,0.00,Wunderground v.1.15,2013-03-17 12:30:00,
2013-03-17 08:35:00,25.9,18.7,30.22,NNE,32,3.0,5.0,74,0.00,,,0.00,Wunderground v.1.15,2013-03-17 12:35:00,
2013-03-17 08:40:00,26.0,18.8,30.22,ENE,59,3.0,4.0,74,0.00,,,0.00,Wunderground v.1.15,2013-03-17 12:40:00,
2013-03-17 08:45:00,26.1,19.3,30.22,NNE,25,4.0,4.0,75,0.00,,,0.00,Wunderground v.1.15,2013-03-17 12:45:00,
2013-03-17 08:50:00,26.1,19.3,30.23,East,89,3.0,3.0,75,0.00,,,0.00,Wunderground v.1.15,2013-03-17 12:50:00,
2013-03-17 08:55:00,26.2,19.0,30.22,NE,56,3.0,3.0,74,0.00,,,0.00,Wunderground v.1.15,2013-03-17 12:55:00,
2013-03-17 09:00:00,26.3,19.5,30.23,ENE,77,3.0,3.0,75,0.00,,,0.00,Wunderground v.1.15,2013-03-17 13:00:00,
2013-03-17 09:10:00,26.5,19.6,30.23,NE,56,4.0,4.0,75,0.00,,,0.00,Wunderground v.1.15,2013-03-17 13:10:00,
2013-03-17 09:15:00,26.6,19.7,30.23,ENE,69,3.0,5.0,75,0.00,,,0.00,Wunderground v.1.15,2013-03-17 13:15:00,
2013-03-17 09:20:00,26.6,20.1,30.23,ENE,65,4.0,11.0,76,0.00,,,0.00,Wunderground v.1.15,2013-03-17 13:20:00,
2013-03-17 09:25:00,26.6,19.7,30.23,NE,56,5.0,11.0,75,0.00,,,0.00,Wunderground v.1.15,2013-03-17 13:25:00,
2013-03-17 09:30:00,26.6,19.4,30.24,ENE,62,6.0,6.0,74,0.00,,,0.00,Wunderground v.1.15,2013-03-17 13:30:00,
2013-03-17 09:35:00,26.7,19.5,30.24,NE,49,5.0,6.0,74,0.00,,,0.00,Wunderground v.1.15,2013-03-17 13:35:00,
2013-03-17 09:45:00,26.6,19.4,30.24,ESE,110,7.0,9.0,74,0.00,,,0.00,Wunderground v.1.15,2013-03-17 13:45:00,
2013-03-17 09:50:00,26.6,19.4,30.23,East,98,7.0,7.0,74,0.00,,,0.00,Wunderground v.1.15,2013-03-17 13:50:00,
2013-03-17 09:55:00,26.7,19.5,30.24,East,79,7.0,7.0,74,0.00,,,0.00,Wunderground v.1.15,2013-03-17 13:55:00,
2013-03-17 10:00:00,26.6,19.4,30.24,East,88,7.0,10.0,74,0.00,,,0.00,Wunderground v.1.15,2013-03-17 14:00:00,
2013-03-17 10:10:00,26.6,19.1,30.24,East,94,7.0,9.0,73,0.00,,,0.00,Wunderground v.1.15,2013-03-17 14:10:00,
2013-03-17 10:15:00,26.8,19.3,30.24,NE,44,7.0,9.0,73,0.00,,,0.00,Wunderground v.1.15,2013-03-17 14:15:00,
2013-03-17 10:20:00,27.0,19.2,30.24,ENE,78,7.0,11.0,72,0.00,,,0.00,Wunderground v.1.15,2013-03-17 14:20:00,
2013-03-17 10:25:00,26.7,18.9,30.24,East,87,8.0,11.0,72,0.00,,,0.00,Wunderground v.1.15,2013-03-17 14:25:00,
2013-03-17 10:30:00,26.5,18.7,30.24,East,79,8.0,11.0,72,0.00,,,0.00,Wunderground v.1.15,2013-03-17 14:30:00,
2013-03-17 10:35:00,26.3,18.2,30.24,ENE,74,8.0,11.0,71,0.00,,,0.00,Wunderground v.1.15,2013-03-17 14:35:00,
2013-03-17 10:40:00,26.1,18.0,30.24,East,87,9.0,10.0,71,0.00,,,0.00,Wunderground v.1.15,2013-03-17 14:40:00,
2013-03-17 10:50:00,26.1,18.3,30.25,East,84,8.0,8.0,72,0.00,,,0.00,Wunderground v.1.15,2013-03-17 14:50:00,
2013-03-17 10:55:00,26.2,18.1,30.24,ENE,76,7.0,8.0,71,0.00,,,0.00,Wunderground v.1.15,2013-03-17 14:55:00,
2013-03-17 11:00:00,26.5,18.4,30.25,ESE,121,7.0,7.0,71,0.00,,,0.00,Wunderground v.1.15,2013-03-17 15:00:00,
2013-03-17 11:10:00,26.7,17.9,30.25,ENE,72,8.0,12.0,69,0.00,,,0.00,Wunderground v.1.15,2013-03-17 15:10:00,
2013-03-17 11:20:00,26.5,17.4,30.25,East,84,8.0,8.0,68,0.00,,,0.00,Wunderground v.1.15,2013-03-17 15:20:00,
2013-03-17 11:25:00,26.4,17.3,30.25,ENE,62,8.0,8.0,68,0.00,,,0.00,Wunderground v.1.15,2013-03-17 15:25:00,
2013-03-17 11:30:00,26.4,17.6,30.25,East,84,8.0,8.0,69,0.00,,,0.00,Wunderground v.1.15,2013-03-17 15:30:00,
2013-03-17 11:35:00,26.8,18.7,30.25,ENE,70,7.0,8.0,71,0.00,,,0.00,Wunderground v.1.15,2013-03-17 15:35:00,
2013-03-17 11:40:00,26.7,18.2,30.25,East,86,6.0,8.0,70,0.00,,,0.00,Wunderground v.1.15,2013-03-17 15:40:00,
2013-03-17 11:45:00,26.6,18.1,30.26,SE,134,7.0,8.0,70,0.00,,,0.00,Wunderground v.1.15,2013-03-17 15:45:00,
2013-03-17 11:55:00,26.8,18.7,30.25,East,84,7.0,8.0,71,0.00,,,0.00,Wunderground v.1.15,2013-03-17 15:55:00,
2013-03-17 12:00:00,26.7,18.2,30.26,East,82,6.0,7.0,70,0.00,,,0.00,Wunderground v.1.15,2013-03-17 16:00:00,
2013-03-17 12:10:00,26.5,18.4,30.25,ENE,62,6.0,6.0,71,0.00,,,0.00,Wunderground v.1.15,2013-03-17 16:10:00,
2013-03-17 12:15:00,26.3,17.5,30.25,NNE,25,7.0,9.0,69,0.00,,,0.00,Wunderground v.1.15,2013-03-17 16:15:00,
2013-03-17 12:20:00,26.3,17.2,30.25,East,79,8.0,8.0,68,0.00,,,0.00,Wunderground v.1.15,2013-03-17 16:20:00,
2013-03-17 12:30:00,26.7,17.9,30.25,East,89,7.0,7.0,69,0.00,,,0.00,Wunderground v.1.15,2013-03-17 16:30:00,
2013-03-17 12:35:00,27.3,18.5,30.25,ESE,113,8.0,8.0,69,0.00,,,0.00,Wunderground v.1.15,2013-03-17 16:35:00,
2013-03-17 12:40:00,27.7,18.8,30.25,East,94,7.0,7.0,69,0.00,,,0.00,Wunderground v.1.15,2013-03-17 16:40:00,
2013-03-17 12:45:00,27.4,17.9,30.26,ESE,113,7.0,7.0,67,0.00,,,0.00,Wunderground v.1.15,2013-03-17 16:45:00,
2013-03-17 12:50:00,27.0,17.8,30.25,ENE,71,6.0,7.0,68,0.00,,,0.00,Wunderground v.1.15,2013-03-17 16:50:00,
2013-03-17 12:55:00,27.3,18.5,30.25,East,84,6.0,7.0,69,0.00,,,0.00,Wunderground v.1.15,2013-03-17 16:55:00,
2013-03-17 13:00:00,27.9,20.0,30.25,ESE,110,6.0,7.0,72,0.00,,,0.00,Wunderground v.1.15,2013-03-17 17:00:00,
2013-03-17 13:10:00,28.3,18.4,30.25,ENE,73,7.0,7.0,66,0.00,,,0.00,Wunderground v.1.15,2013-03-17 17:10:00,
2013-03-17 13:15:00,28.6,19.4,30.25,ENE,66,7.0,7.0,68,0.00,,,0.00,Wunderground v.1.15,2013-03-17 17:15:00,
2013-03-17 13:20:00,28.8,18.9,30.25,ENE,77,6.0,8.0,66,0.00,,,0.00,Wunderground v.1.15,2013-03-17 17:20:00,
2013-03-17 13:30:00,27.8,18.3,30.25,East,100,6.0,6.0,67,0.00,,,0.00,Wunderground v.1.15,2013-03-17 17:30:00,
2013-03-17 13:35:00,28.4,18.8,30.25,NE,53,5.0,6.0,67,0.00,,,0.00,Wunderground v.1.15,2013-03-17 17:35:00,
2013-03-17 13:40:00,29.3,20.7,30.25,ENE,60,6.0,6.0,70,0.00,,,0.00,Wunderground v.1.15,2013-03-17 17:40:00,
2013-03-17 13:45:00,30.2,21.2,30.25,SE,134,7.0,11.0,69,0.00,,,0.00,Wunderground v.1.15,2013-03-17 17:45:00,
2013-03-17 13:50:00,29.8,19.8,30.25,ESE,108,9.0,9.0,66,0.00,,,0.00,Wunderground v.1.15,2013-03-17 17:50:00,
2013-03-17 14:00:00,30.1,20.5,30.24,ESE,110,7.0,8.0,67,0.00,,,0.00,Wunderground v.1.15,2013-03-17 18:00:00,
2013-03-17 14:10:00,30.6,20.9,30.24,SE,131,7.0,7.0,67,0.00,,,0.00,Wunderground v.1.15,2013-03-17 18:10:00,
2013-03-17 14:15:00,30.8,20.0,30.24,SE,145,7.0,7.0,64,0.00,,,0.00,Wunderground v.1.15,2013-03-17 18:15:00,
2013-03-17 14:20:00,30.2,18.4,30.24,East,79,7.0,9.0,61,0.00,,,0.00,Wunderground v.1.15,2013-03-17 18:20:00,
2013-03-17 14:25:00,29.4,18.7,30.24,East,94,7.0,9.0,64,0.00,,,0.00,Wunderground v.1.15,2013-03-17 18:25:00,
2013-03-17 14:35:00,29.4,18.0,30.24,NE,55,6.0,7.0,62,0.00,,,0.00,Wunderground v.1.15,2013-03-17 18:35:00,
2013-03-17 14:40:00,29.8,19.8,30.24,ENE,64,7.0,11.0,66,0.00,,,0.00,Wunderground v.1.15,2013-03-17 18:40:00,
2013-03-17 14:45:00,29.8,19.1,30.23,East,82,6.0,11.0,64,0.00,,,0.00,Wunderground v.1.15,2013-03-17 18:45:00,
2013-03-17 14:50:00,30.3,19.6,30.23,East,93,6.0,6.0,64,0.00,,,0.00,Wunderground v.1.15,2013-03-17 18:50:00,
2013-03-17 14:55:00,30.5,19.4,30.23,ESE,110,6.0,6.0,63,0.00,,,0.00,Wunderground v.1.15,2013-03-17 18:55:00,
2013-03-17 15:00:00,31.2,20.8,30.23,SE,128,6.0,7.0,65,0.00,,,0.00,Wunderground v.1.15,2013-03-17 19:00:00,
2013-03-17 15:10:00,31.6,20.8,30.22,East,81,7.0,7.0,64,0.00,,,0.00,Wunderground v.1.15,2013-03-17 19:10:00,
2013-03-17 15:15:00,31.9,20.7,30.22,ESE,122,7.0,7.0,63,0.00,,,0.00,Wunderground v.1.15,2013-03-17 19:15:00,
2013-03-17 15:20:00,31.5,18.4,30.21,East,91,7.0,8.0,58,0.00,,,0.00,Wunderground v.1.15,2013-03-17 19:20:00,
2013-03-17 15:25:00,31.2,18.9,30.21,ESE,115,7.0,8.0,60,0.00,,,0.00,Wunderground v.1.15,2013-03-17 19:25:00,
2013-03-17 15:30:00,31.3,19.8,30.21,ENE,73,7.0,8.0,62,0.00,,,0.00,Wunderground v.1.15,2013-03-17 19:30:00,
2013-03-17 15:40:00,31.7,19.8,30.20,ENE,72,7.0,11.0,61,0.00,,,0.00,Wunderground v.1.15,2013-03-17 19:40:00,
2013-03-17 15:45:00,31.6,19.7,30.20,NE,36,7.0,11.0,61,0.00,,,0.00,Wunderground v.1.15,2013-03-17 19:45:00,
2013-03-17 15:50:00,31.5,19.2,30.20,East,91,7.0,7.0,60,0.00,,,0.00,Wunderground v.1.15,2013-03-17 19:50:00,
2013-03-17 15:55:00,31.6,20.8,30.20,ESE,103,6.0,7.0,64,0.00,,,0.00,Wunderground v.1.15,2013-03-17 19:55:00,
2013-03-17 16:00:00,31.4,19.5,30.20,SE,128,6.0,6.0,61,0.00,,,0.00,Wunderground v.1.15,2013-03-17 20:00:00,
2013-03-17 16:10:00,31.6,19.7,30.19,East,79,7.0,7.0,61,0.00,,,0.00,Wunderground v.1.15,2013-03-17 20:10:00,
2013-03-17 16:15:00,32.0,20.8,30.19,ENE,63,7.0,9.0,63,0.00,,,0.00,Wunderground v.1.15,2013-03-17 20:15:00,
2013-03-17 16:20:00,32.0,20.4,30.18,East,86,7.0,9.0,62,0.00,,,0.00,Wunderground v.1.15,2013-03-17 20:20:00,
2013-03-17 16:25:00,32.6,20.6,30.18,ENE,60,8.0,11.0,61,0.00,,,0.00,Wunderground v.1.15,2013-03-17 20:25:00,
2013-03-17 16:30:00,32.4,20.0,30.19,ENE,75,8.0,8.0,60,0.00,,,0.00,Wunderground v.1.15,2013-03-17 20:30:00,
2013-03-17 16:35:00,32.4,19.7,30.18,ENE,58,6.0,10.0,59,0.00,,,0.00,Wunderground v.1.15,2013-03-17 20:35:00,
2013-03-17 16:40:00,32.6,20.6,30.18,East,89,6.0,9.0,61,0.00,,,0.00,Wunderground v.1.15,2013-03-17 20:40:00,
2013-03-17 16:45:00,32.8,20.8,30.18,East,96,7.0,9.0,61,0.00,,,0.00,Wunderground v.1.15,2013-03-17 20:45:00,
2013-03-17 16:50:00,33.1,20.3,30.18,ENE,68,7.0,7.0,59,0.00,,,0.00,Wunderground v.1.15,2013-03-17 20:50:00,
2013-03-17 16:55:00,33.2,21.2,30.18,ESE,108,8.0,9.0,61,0.00,,,0.00,Wunderground v.1.15,2013-03-17 20:55:00,
2013-03-17 17:00:00,33.1,20.3,30.18,East,96,8.0,8.0,59,0.00,,,0.00,Wunderground v.1.15,2013-03-17 21:00:00,
2013-03-17 17:10:00,33.7,21.7,30.17,East,95,8.0,8.0,61,0.00,,,0.00,Wunderground v.1.15,2013-03-17 21:10:00,
2013-03-17 17:15:00,33.7,21.7,30.17,ESE,120,8.0,9.0,61,0.00,,,0.00,Wunderground v.1.15,2013-03-17 21:15:00,
2013-03-17 17:20:00,34.0,21.2,30.17,NE,40,7.0,7.0,59,0.00,,,0.00,Wunderground v.1.15,2013-03-17 21:20:00,
2013-03-17 17:25:00,34.1,21.3,30.16,ENE,76,7.0,10.0,59,0.00,,,0.00,Wunderground v.1.15,2013-03-17 21:25:00,
2013-03-17 17:30:00,33.9,20.3,30.17,ESE,118,8.0,8.0,57,0.00,,,0.00,Wunderground v.1.15,2013-03-17 21:30:00,
2013-03-17 17:35:00,33.9,20.7,30.16,East,100,9.0,10.0,58,0.00,,,0.00,Wunderground v.1.15,2013-03-17 21:35:00,
2013-03-17 17:45:00,33.8,20.6,30.16,ESE,116,8.0,8.0,58,0.00,,,0.00,Wunderground v.1.15,2013-03-17 21:45:00,
2013-03-17 17:50:00,33.3,20.5,30.16,NE,46,7.0,7.0,59,0.00,,,0.00,Wunderground v.1.15,2013-03-17 21:50:00,
2013-03-17 17:55:00,33.1,20.3,30.16,SE,125,8.0,8.0,59,0.00,,,0.00,Wunderground v.1.15,2013-03-17 21:55:00,
2013-03-17 18:00:00,33.3,20.9,30.16,East,96,7.0,7.0,60,0.00,,,0.00,Wunderground v.1.15,2013-03-17 22:00:00,
2013-03-17 18:10:00,33.7,20.5,30.16,ENE,71,7.0,7.0,58,0.00,,,0.00,Wunderground v.1.15,2013-03-17 22:10:00,
2013-03-17 18:20:00,33.7,20.9,30.16,ESE,118,8.0,8.0,59,0.00,,,0.00,Wunderground v.1.15,2013-03-17 22:20:00,
2013-03-17 18:25:00,33.5,20.7,30.15,ENE,70,8.0,11.0,59,0.00,,,0.00,Wunderground v.1.15,2013-03-17 22:25:00,
2013-03-17 18:30:00,33.2,20.8,30.15,ESE,122,8.0,8.0,60,0.00,,,0.00,Wunderground v.1.15,2013-03-17 22:30:00,
2013-03-17 18:35:00,33.1,20.7,30.15,ESE,110,8.0,11.0,60,0.00,,,0.00,Wunderground v.1.15,2013-03-17 22:35:00,
2013-03-17 18:40:00,33.0,20.2,30.15,ESE,104,9.0,9.0,59,0.00,,,0.00,Wunderground v.1.15,2013-03-17 22:40:00,
2013-03-17 18:50:00,32.6,20.2,30.16,SE,125,8.0,8.0,60,0.00,,,0.00,Wunderground v.1.15,2013-03-17 22:50:00,
2013-03-17 18:55:00,32.5,20.9,30.16,ENE,75,8.0,8.0,62,0.00,,,0.00,Wunderground v.1.15,2013-03-17 22:55:00,
2013-03-17 19:00:00,32.5,20.9,30.16,ESE,110,8.0,12.0,62,0.00,,,0.00,Wunderground v.1.15,2013-03-17 23:00:00,
2013-03-17 19:10:00,32.2,21.0,30.16,East,94,10.0,10.0,63,0.00,,,0.00,Wunderground v.1.15,2013-03-17 23:10:00,
2013-03-17 19:15:00,32.0,20.8,30.17,East,91,10.0,10.0,63,0.00,,,0.00,Wunderground v.1.15,2013-03-17 23:15:00,
2013-03-17 19:25:00,30.9,20.5,30.17,ESE,106,9.0,10.0,65,0.00,,,0.00,Wunderground v.1.15,2013-03-17 23:25:00,
2013-03-17 19:30:00,30.6,20.6,30.17,East,84,8.0,8.0,66,0.00,,,0.00,Wunderground v.1.15,2013-03-17 23:30:00,
2013-03-17 19:35:00,30.2,20.6,30.17,SE,127,8.0,9.0,67,0.00,,,0.00,Wunderground v.1.15,2013-03-17 23:35:00,
2013-03-17 19:40:00,30.0,20.4,30.17,ESE,113,8.0,12.0,67,0.00,,,0.00,Wunderground v.1.15,2013-03-17 23:40:00,
2013-03-17 19:45:00,29.8,20.5,30.18,ESE,116,9.0,12.0,68,0.00,,,0.00,Wunderground v.1.15,2013-03-17 23:45:00,
2013-03-17 19:55:00,29.6,20.0,30.18,ESE,110,8.0,12.0,67,0.00,,,0.00,Wunderground v.1.15,2013-03-17 23:55:00,
2013-03-17 20:00:00,29.4,20.5,30.18,SE,124,8.0,8.0,69,0.00,,,0.00,Wunderground v.1.15,2013-03-18 00:00:00,
2013-03-17 20:10:00,29.2,20.6,30.19,East,82,7.0,7.0,70,0.00,,,0.00,Wunderground v.1.15,2013-03-18 00:10:00,
2013-03-17 20:15:00,29.0,20.1,30.18,ENE,75,7.0,7.0,69,0.00,,,0.00,Wunderground v.1.15,2013-03-18 00:15:00,
2013-03-17 20:20:00,29.0,20.4,30.18,East,96,6.0,7.0,70,0.00,,,0.00,Wunderground v.1.15,2013-03-18 00:20:00,
2013-03-17 20:25:00,28.9,20.3,30.18,East,99,6.0,11.0,70,0.00,,,0.00,Wunderground v.1.15,2013-03-18 00:25:00,
2013-03-17 20:30:00,28.9,20.0,30.18,East,100,7.0,11.0,69,0.00,,,0.00,Wunderground v.1.15,2013-03-18 00:30:00,
2013-03-17 20:40:00,28.7,20.5,30.18,ENE,68,7.0,7.0,71,0.00,,,0.00,Wunderground v.1.15,2013-03-18 00:40:00,
2013-03-17 20:45:00,28.6,20.7,30.18,ESE,106,7.0,9.0,72,0.00,,,0.00,Wunderground v.1.15,2013-03-18 00:45:00,
2013-03-17 20:50:00,28.5,20.3,30.18,ENE,65,7.0,8.0,71,0.00,,,0.00,Wunderground v.1.15,2013-03-18 00:50:00,
2013-03-17 20:55:00,28.4,20.5,30.18,ESE,111,7.0,10.0,72,0.00,,,0.00,Wunderground v.1.15,2013-03-18 00:55:00,
2013-03-17 21:00:00,28.4,20.2,30.18,East,94,8.0,14.0,71,0.00,,,0.00,Wunderground v.1.15,2013-03-18 01:00:00,
2013-03-17 21:10:00,28.1,20.2,30.17,SE,136,9.0,13.0,72,0.00,,,0.00,Wunderground v.1.15,2013-03-18 01:10:00,
2013-03-17 21:15:00,28.0,20.1,30.17,ESE,110,8.0,16.0,72,0.00,,,0.00,Wunderground v.1.15,2013-03-18 01:15:00,
2013-03-17 21:20:00,27.8,19.9,30.17,ESE,121,9.0,9.0,72,0.00,,,0.00,Wunderground v.1.15,2013-03-18 01:20:00,
2013-03-17 21:30:00,27.5,20.0,30.17,ESE,110,10.0,16.0,73,0.00,,,0.00,Wunderground v.1.15,2013-03-18 01:30:00,
2013-03-17 21:35:00,27.4,19.9,30.17,ESE,119,12.0,16.0,73,0.00,,,0.00,Wunderground v.1.15,2013-03-18 01:35:00,
2013-03-17 21:40:00,27.2,19.7,30.16,ESE,115,12.0,12.0,73,0.00,,,0.00,Wunderground v.1.15,2013-03-18 01:40:00,
2013-03-17 21:45:00,27.1,19.9,30.16,ESE,121,12.0,12.0,74,0.00,,,0.00,Wunderground v.1.15,2013-03-18 01:45:00,
2013-03-17 21:50:00,26.9,19.4,30.17,ESE,104,12.0,15.0,73,0.00,,,0.00,Wunderground v.1.15,2013-03-18 01:50:00,
2013-03-17 21:55:00,26.8,19.6,30.16,ESE,108,12.0,18.0,74,0.00,,,0.00,Wunderground v.1.15,2013-03-18 01:55:00,
2013-03-17 22:00:00,26.7,19.5,30.16,ESE,119,11.0,11.0,74,0.00,,,0.00,Wunderground v.1.15,2013-03-18 02:00:00,
2013-03-17 22:10:00,26.5,19.6,30.16,ESE,113,10.0,15.0,75,0.00,,,0.00,Wunderground v.1.15,2013-03-18 02:10:00,
2013-03-17 22:15:00,26.5,19.6,30.16,SE,134,10.0,15.0,75,0.00,,,0.00,Wunderground v.1.15,2013-03-18 02:15:00,
2013-03-17 22:20:00,26.4,19.9,30.15,East,94,10.0,13.0,76,0.00,,,0.00,Wunderground v.1.15,2013-03-18 02:20:00,
2013-03-17 22:25:00,26.3,19.8,30.15,ESE,116,10.0,13.0,76,0.00,,,0.00,Wunderground v.1.15,2013-03-18 02:25:00,
2013-03-17 22:35:00,26.2,20.0,30.15,ESE,114,8.0,11.0,77,0.00,,,0.00,Wunderground v.1.15,2013-03-18 02:35:00,
2013-03-17 22:40:00,26.1,19.9,30.15,East,92,9.0,9.0,77,0.00,,,0.00,Wunderground v.1.15,2013-03-18 02:40:00,
2013-03-17 22:45:00,26.1,19.6,30.15,ESE,107,8.0,9.0,76,0.00,,,0.00,Wunderground v.1.15,2013-03-18 02:45:00,
2013-03-17 22:50:00,26.1,19.9,30.15,East,79,8.0,8.0,77,0.00,,,0.00,Wunderground v.1.15,2013-03-18 02:50:00,
2013-03-17 22:55:00,26.0,19.8,30.15,East,97,8.0,12.0,77,0.00,,,0.00,Wunderground v.1.15,2013-03-18 02:55:00,
2013-03-17 23:00:00,26.0,19.8,30.15,SE,139,9.0,9.0,77,0.00,,,0.00,Wunderground v.1.15,2013-03-18 03:00:00,
2013-03-17 23:10:00,25.9,19.4,30.15,ENE,69,9.0,9.0,76,0.00,,,0.00,Wunderground v.1.15,2013-03-18 03:10:00,
2013-03-17 23:15:00,25.9,20.0,30.15,ESE,107,8.0,10.0,78,0.00,,,0.00,Wunderground v.1.15,2013-03-18 03:15:00,
2013-03-17 23:20:00,25.9,19.7,30.15,ESE,108,8.0,8.0,77,0.00,,,0.00,Wunderground v.1.15,2013-03-18 03:20:00,
2013-03-17 23:25:00,25.9,20.0,30.15,ESE,103,9.0,12.0,78,0.00,,,0.00,Wunderground v.1.15,2013-03-18 03:25:00,
2013-03-17 23:30:00,25.9,20.0,30.14,East,84,9.0,9.0,78,0.00,,,0.00,Wunderground v.1.15,2013-03-18 03:30:00,
2013-03-17 23:40:00,25.9,20.0,30.13,East,87,9.0,14.0,78,0.00,,,0.00,Wunderground v.1.15,2013-03-18 03:40:00,
2013-03-17 23:45:00,25.9,19.7,30.13,NE,38,11.0,14.0,77,0.00,,,0.00,Wunderground v.1.15,2013-03-18 03:45:00,
2013-03-17 23:50:00,25.8,19.6,30.12,East,97,10.0,13.0,77,0.00,,,0.00,Wunderground v.1.15,2013-03-18 03:50:00,
2013-03-17 23:55:00,25.8,19.6,30.11,East,99,10.0,13.0,77,0.00,,,0.00,Wunderground v.1.15,2013-03-18 03:55:00,